Tracking 22459 objects as of 3-Mar-2021
HD Live streaming from Space Station
objects crossing your sky now

SL-12 DEB

Track SL-12 DEB now!
10-day predictions


NORAD ID: 28583
Int'l Code: 1992-047S
Perigee: 1,726.4 km
Apogee: 11,439.7 km
Inclination: 63.6 °
Period: 244.6 minutes
Semi major axis: 12954 km
RCS: 0.0466 m2 (small)
Launch date: July 30, 1992
Source: Commonwealth of Independent States (former USSR) (CIS)
Launch site: TYURATAM MISSILE AND SPACE COMPLEX (TTMTR)

Note: This is SATELLITE DEBRIS
aabbcc
Your satellite tracking list
Your tracking list is empty




NASA's NSSDC Master Catalog

Two Line Element Set (TLE):
1 28583U 92047S   21034.39131492 -.00000016  00000-0  00000+0 0  9997
2 28583  63.6353  37.0500 3749133 146.0175 244.9970  5.88834793280047
Source of the keplerian elements: AFSPC